COSMOS 2082

Satellite information

Favourite Embed

Satellite Type and Status

PAYLOADIN ORBIT

Key statistics

Satellite COSMOS 2082 at a glance.

Uptime

12989

Days in orbit

Revolutions

≈ 14.1

Per day

Orbit

LEO

Low Earth Orbit

Inclination

71.0

Latest

Satellite identification and parameters

Extended collection of information and parameters for COSMOS 2082.

Object identification

Identified? True

Debris? False

Object name: COSMOS 2082

International designator: 1990-046A

Object number (NORAD): 20624

Object ID (CCSDS): 20624

Country: COMMONWEALTH OF INDEPENDENT STATES (CIS)

Current information (Y/N): Y

RCS size: LARGE

Orbital parameters

Period: 101.78 minutes

Inclination: 71.0397 deg

SMA: 7221.082 km

Apoapsis: 854.329 km

Periapsis: 831.566 km

RAAN: 204.2729 deg

Eccentricy: 0.00157616

Argument of periapsis: 330.569 deg

Mean anomaly: 29.4544 deg

Mean motion: 14.14813854 rev/day

Mean motion (dot): 0.00000336 rev/day2

B* drag term: 0.0001984317 1/REarth

Two-line elements (TLE)

Creation date: Dec. 12, 2025, 10:14 a.m.

Reference frame: TEME

Reference center: EARTH

Epoch: Dec. 12, 2025, 1:41 a.m. UTC

TLE line 0: 0 COSMOS 2082

TLE line 1: 1 20624U 90046A 25346.07062785 .00000336 00000-0 19843-3 0 9998

TLE line 2: 2 20624 71.0397 204.2729 0015762 330.5690 29.4544 14.14813854835234

Live tracking on map

Real-time ground track for satellite COSMOS 2082.

In-orbit conjunctions

A list of the most updated potential collisions computed for object COSMOS 2082.

Target Orbit TCA Probability of collision Miss distance Type
CZ-6A DEB LEO 2025-04-07 12:49:26 0.0002626742 71.0 (m) DEBRIS
FENGYUN 1C DEB SSO 2025-03-25 20:06:18 0.0001482902 180.0 (m) DEBRIS
FENGYUN 1C DEB SSO 2024-12-11 22:26:13 0.0001293994 460.0 (m) DEBRIS
SL-16 DEB LEO 2024-12-10 01:34:45 0.0001616514 171.0 (m) DEBRIS
DELTA 1 DEB SSO 2024-10-31 20:09:54 0.0001202493 82.0 (m) DEBRIS

Associated space launch

Second generation ELING satellite

COSMOS 2082 was lifted into orbit during the mission ‘Zenit-2 | Tselina-2 7’, on board a Zenit-2 space rocket.

The launch took place on May 22, 1990, 5:14 a.m. from 45/2.

For more information about the launch, click the button.

Launch to space Zenit-2 | Tselina-2 7
Zenit-2 | Tselina-2 7

Agency: N/A

Status: Launch Successful

Launch date: May 22, 1990, 5:14 a.m. UTC

Rocket: Zenit-2

Launch pad: 45/2

Location: Baikonur Cosmodrome, Republic of Kazakhstan

...

Latest news about this satellite

There are no fresh news available about this satellite. Check back as we update our databases every day.


Newsletter sign-up

Weekly statistics, charts and insights to help you stay on top of the space industry.